Location: Crescent
(42.8242°N, 73.7329°W)
Time: 05:24:14
(UTC+00:00)

A-11 Canister half - Pass Details

Date: 24 February 2026
Orbit: 1524 x 1683 km, 47.3° (Epoch: 14 March)

Event Time Altitude Azimuth Distance (km) Brightness Sun altitude
Rises 01:20:56 0° 294° (WNW) 4,684 12.7 -30.5°
Reaches altitude 10° 01:23:58 10° 293° (WNW) 3,695 11.9 -31.1°
Maximum altitude 01:33:12 73° 212° (SSW) 1,590 8.9 -32.7°
Enters shadow 01:34:37 64° 161° (SSE) 1,672 8.9 -32.9°
